Tracking 29892 objects as of 21-Nov-2024
HD Live streaming from Space Station
objects crossing your sky now

YAOGAN 1 DEB

Track YAOGAN 1 DEB now!
10-day predictions


NORAD ID: 36365
Int'l Code: 2006-015J
Perigee: 553.5 km
Apogee: 575.9 km
Inclination: 97.9 °
Period: 95.8 minutes
Semi major axis: 6935 km
RCS: 1.559 m2 (large)
Launch date: April 26, 2006
Source: People's Republic of China (PRC)
Launch site: Taiyaun Space Center, China (TSC)

Note: This is SATELLITE DEBRIS
Your satellite tracking list
Your tracking list is empty




NASA's NSSDC Master Catalog

Two Line Element Set (TLE):
1 36365U 06015J   24325.93365742  .00013708  00000-0  10187-2 0  9998
2 36365  97.8571  15.1054 0016121 354.6121   5.4928 15.03025962801775
Source of the keplerian elements: AFSPC